Bookmark and Share
Track history (hours):
 

Marine Rouge

Last reported at 2014-Apr-19 09:33 UTC. Time now 2014-Apr-19 09:38 UTC.
Position N 35°27' E 139°39'.

Length 52 m; draft 2.8 m.

Type: Passenger vessel. MMSI: 431000518.

NotesDate/timePositionNaut miles runAvg speedWind from/ knotsBaromVisibWave heightAir tempDewpointWater temp
2014-Apr-19 09:33N 35°27' E 139°39'0 0.0
2014-Apr-19 08:33N 35°27' E 139°39'1 0.7
2014-Apr-19 07:33N 35°27' E 139°39'1 0.7
2014-Apr-19 06:33N 35°27' E 139°39'0 0.1
2014-Apr-19 05:33N 35°27' E 139°39'0 0.1
2014-Apr-19 04:33N 35°27' E 139°39'1 0.5
2014-Apr-19 03:33N 35°27' E 139°39'1 0.5
2014-Apr-19 02:33N 35°27' E 139°39'0 0.0
2014-Apr-19 01:33N 35°27' E 139°39'0 0.0
2014-Apr-19 00:33N 35°27' E 139°39'0 0.0
2014-Apr-18 12:33N 35°27' E 139°39'1 0.9
2014-Apr-18 11:34N 35°28' E 139°40'1 0.6
2014-Apr-18 10:33N 35°27' E 139°39'1 0.6
2014-Apr-18 09:33N 35°27' E 139°39'0 0.0
2014-Apr-18 08:33N 35°27' E 139°39'1 1.1
2014-Apr-18 07:34N 35°28' E 139°40'1 1.1
2014-Apr-18 06:33N 35°27' E 139°39'0 0.1
2014-Apr-18 05:33N 35°27' E 139°39'0 0.1
2014-Apr-18 04:33N 35°27' E 139°39'1 0.6
2014-Apr-18 03:33N 35°27' E 139°39'1 0.6
2014-Apr-18 02:33N 35°27' E 139°39'0 0.0
2014-Apr-18 01:33N 35°27' E 139°39'0 0.0
2014-Apr-18 00:33N 35°27' E 139°39'1 0.0
2014-Apr-17 12:33N 35°27' E 139°39'1 0.7
2014-Apr-17 11:33N 35°28' E 139°39'1 0.7
2014-Apr-17 10:33N 35°27' E 139°39'1 0.5
2014-Apr-17 09:33N 35°27' E 139°39'0 0.0
2014-Apr-17 08:33N 35°27' E 139°39'0 0.4
2014-Apr-17 07:33N 35°27' E 139°39'0 0.3
2014-Apr-17 06:33N 35°27' E 139°39'0 0.1
2014-Apr-17 05:33N 35°27' E 139°39'0 0.1
2014-Apr-17 04:33N 35°27' E 139°39'1 0.5
2014-Apr-17 03:34N 35°27' E 139°39'1 0.5
2014-Apr-17 02:33N 35°27' E 139°39'0 0.0
2014-Apr-17 01:33N 35°27' E 139°39'0 0.0
2014-Apr-17 00:33N 35°27' E 139°39'1 0.0
2014-Apr-16 11:19N 35°27' E 139°39'2 2.3
2014-Apr-16 10:33N 35°27' E 139°41'2 1.7
2014-Apr-16 09:31N 35°27' E 139°39'0 0.0
2014-Apr-16 08:33N 35°27' E 139°39'3 3.0
2014-Apr-16 07:33N 35°27' E 139°43'3 3.0
2014-Apr-16 06:33N 35°27' E 139°39'0 0.1
2014-Apr-16 05:33N 35°27' E 139°39'0 0.1
2014-Apr-16 04:34N 35°27' E 139°39'0 0.4
2014-Apr-16 03:34N 35°27' E 139°39'1 0.4
2014-Apr-16 02:07N 35°27' E 139°39'0 0.0
2014-Apr-16 01:05N 35°27' E 139°39'3 0.2
2014-Apr-15 09:34N 35°28' E 139°43'3 2.9
2014-Apr-15 08:34N 35°27' E 139°39'0 0.0
2014-Apr-15 07:34N 35°27' E 139°39'3 2.8
2014-Apr-15 06:34N 35°28' E 139°42'3 2.8
2014-Apr-15 05:34N 35°27' E 139°39'0 0.0
2014-Apr-15 03:34N 35°27' E 139°39'1 1.3
2014-Apr-15 02:34N 35°27' E 139°41'1 1.3
2014-Apr-15 01:34N 35°27' E 139°39'0 0.0
2014-Apr-15 00:34N 35°27' E 139°39'0 0.0
2014-Apr-14 23:34N 35°27' E 139°39'1 0.1
2014-Apr-14 10:33N 35°28' E 139°40'1 0.8
2014-Apr-14 09:34N 35°28' E 139°39'1 0.9
2014-Apr-14 08:33N 35°27' E 139°39'0 0.1
2014-Apr-14 07:34N 35°27' E 139°39'0 0.5
2014-Apr-14 06:34N 35°27' E 139°39'1 0.5
2014-Apr-14 05:33N 35°27' E 139°39'0 0.0
2014-Apr-13 12:25N 35°27' E 139°39'1 1.6
2014-Apr-13 11:34N 35°28' E 139°41'2 1.6
2014-Apr-13 10:34N 35°27' E 139°39'1 0.6
2014-Apr-13 09:34N 35°27' E 139°39'0 0.0
2014-Apr-13 08:33N 35°27' E 139°39'1 0.7
2014-Apr-13 07:34N 35°27' E 139°39'1 0.7
2014-Apr-13 06:34N 35°27' E 139°39'0 0.1
2014-Apr-13 05:34N 35°27' E 139°39'0 0.1
2014-Apr-13 04:34N 35°27' E 139°39'1 0.7
2014-Apr-13 03:34N 35°27' E 139°39'1 0.7
2014-Apr-13 02:34N 35°27' E 139°39'0 0.0
2014-Apr-13 01:34N 35°27' E 139°39'0 0.0
2014-Apr-13 00:34N 35°27' E 139°39'1 0.0
2014-Apr-12 12:33N 35°27' E 139°39'1 0.7
2014-Apr-12 11:33N 35°28' E 139°39'1 0.6
2014-Apr-12 10:34N 35°27' E 139°39'1 0.5
2014-Apr-12 09:33N 35°27' E 139°39'0 0.0
2014-Apr-12 08:33N 35°27' E 139°39'1 0.5
2014-Apr-12 07:33N 35°27' E 139°39'1 0.5
2014-Apr-12 06:33N 35°27' E 139°39'0 0.1
2014-Apr-12 05:33N 35°27' E 139°39'0 0.1
2014-Apr-12 04:33N 35°27' E 139°39'1 0.8
2014-Apr-12 03:33N 35°27' E 139°40'1 0.8
2014-Apr-12 02:33N 35°27' E 139°39'0 0.0
2014-Apr-12 01:33N 35°27' E 139°39'0 0.0
2014-Apr-12 00:33N 35°27' E 139°39'0 0.0
2014-Apr-11 12:34N 35°27' E 139°39'1 1.2
2014-Apr-11 11:33N 35°28' E 139°40'1 1.2
2014-Apr-11 10:33N 35°27' E 139°39'1 0.5
2014-Apr-11 09:33N 35°27' E 139°39'0 0.0
2014-Apr-11 08:33N 35°27' E 139°39'0 0.0
2014-Apr-11 07:33N 35°27' E 139°39'0 0.0
2014-Apr-11 06:33N 35°27' E 139°39'0 0.0
2014-Apr-11 05:33N 35°27' E 139°39'0 0.0
2014-Apr-11 04:33N 35°27' E 139°39'0 0.0
2014-Apr-11 03:33N 35°27' E 139°39'3 3.0
2014-Apr-11 02:33N 35°26' E 139°43'3 3.3
2014-Apr-11 01:33N 35°30' E 139°43'0 0.0
2014-Apr-10 07:33N 35°30' E 139°42'0 0.0
2014-Apr-10 06:33N 35°30' E 139°42'0 0.0
2014-Apr-10 05:32N 35°30' E 139°42'0 0.0
2014-Apr-10 04:34N 35°30' E 139°42'0 0.0
2014-Apr-10 03:33N 35°30' E 139°42'0 0.0
2014-Apr-10 02:33N 35°30' E 139°42'0 0.0
2014-Apr-10 01:33N 35°30' E 139°42'0 0.0
2014-Apr-10 00:33N 35°30' E 139°42'  

Dump ship's entire track history

sailing weather and tide predictions

Marine Rouge — JG5115 — position and weather